Regional Weather Roundup
Issued by NWS Charleston, SC

Home | Current Version | Previous Version | Text Only | Print | Product List | Glossary On
Versions: 1 2 3 4 5 6 7 8 9 10 11 12 13 14 15 16 17 18 19 20 21 22 23 24 25 26 27 28 29 30 31 32 33 34 35 36 37 38 39 40 41 42 43 44 45 46 47 48 49 50
000
ASUS42 KCHS 180327
RWRCHS

REGIONAL WEATHER ROUNDUP
NATIONAL WEATHER SERVICE CHARLESTON SC
1100 PM EDT THU AUG 17 2017

NOTE: "FAIR" INDICATES FEW OR NO CLOUDS BELOW 12,000 FEET WITH NO
SIGNIFICANT WEATHER AND/OR OBSTRUCTIONS TO VISIBILITY.

NOT ALL STATIONS ARE QUALITY CONTROLLED. USE DATA WITH CAUTION...
ESPECIALLY DEWPOINT OBSERVATIONS.

SCZ027-030-031-034>040-042>050-180400-
...SOUTHEAST SOUTH CAROLINA...

CITY           SKY/WX    TMP DP  RH WIND       PRES   REMARKS
N CHARLESTON   PTCLDY    83  79  88 SW9       29.99S HX  94
WATERFRONT PRK   N/A    N/A N/A N/A VRB3      29.83S
JOHNS ISLAND   FAIR      84  81  89 SW7       29.99F HX  98
PINOPOLIS        N/A     82  79  89 S6        29.92S HX  93
MONCKS CORNER  FAIR      79  77  94 SW3       29.98S
SUMMERVILLE    FAIR      81  79  94 S5        30.00S
BEAUFORT MCAS  CLEAR     84  80  88 SW7       30.00R HX  97
BEAUFORT ARPT  FAIR      82  79  89 SW6       29.99F HX  93
HILTON HEAD IS CLEAR     84  79  84 SW6       30.01S HX  96
WALTERBORO     CLEAR     81  77  89 SW8       30.00S
ALLENDALE      NOT AVBL

...SOUTHERN MIDLANDS AND PEE DEE...

CITY           SKY/WX    TMP DP  RH WIND       PRES   REMARKS
GEORGETOWN     FAIR      79  77  94 CALM      30.00S
KINGSTREE      FAIR      77  75  94 CALM      29.98S
ORANGEBURG     CLOUDY    80  74  81 S3        29.99S
BARNWELL       FAIR      84  77  79 W3        29.99S HX  94
AIKEN          FAIR      79  73  83 SW5       30.03S
MANNING        FAIR      81  77  89 MISG      29.98S
COLUMBIA       PTCLDY    85  76  74 CALM      29.97S HX  94
SUMTER         CLOUDY    83  76  79 S6        29.95S HX  91
FLORENCE       PTCLDY    80  76  87 S5        29.98S
MYRTLE BEACH   NOT AVBL
N MYRTLE BEACH PTCLDY    78  77  96 CALM      29.99S

$$

GAZ063-065-086>088-099>101-113>116-118-119-134>141-150-180400-
...SOUTHEAST GEORGIA...

CITY           SKY/WX    TMP DP  RH WIND       PRES   REMARKS
SAVANNAH ARPT  PTCLDY    82  75  79 SW6       30.01S
HUNTER AAF     CLEAR     82  75  78 SW6       29.98F
FORT STEWART   MOCLDY    80  75  84 CALM      29.99S
STATESBORO     MOCLDY    81  74  81 SW3       30.01S
SYLVANIA       CLEAR     82  78  90 CALM      30.01S HX  91
CLAXTON        FAIR      81  77  87 CALM      30.02S

...CSRA...CENTRAL AND FAR SOUTHEAST GEORGIA...

CITY           SKY/WX    TMP DP  RH WIND       PRES   REMARKS
THOMSON        CLEAR     78  75  89 CALM      30.05S
AUGUSTA-BUSH   CLEAR     81  77  88 S3        29.98S
AUGUSTA-DANIEL CLEAR     85  72  65 SW3       30.00F HX  91
SWAINSBORO     FAIR      81  77  89 CALM      30.02F
VIDALIA        CLOUDY    82  77  83 CALM      30.02S HX  91
EASTMAN        FAIR      79  79 100 CALM      30.05S
HAZLEHURST     FAIR      81  72  72 S3        30.01F
ALMA           MOCLDY    80  75  84 CALM      30.03R
WAYCROSS       CLOUDY    78  75  90 CALM      30.03S
JESUP          FAIR      79  75  89 CALM      30.03S
BAXLEY         FAIR      77  77 100 S3        30.03S
BRUNSWICK      MOCLDY    79  73  83 CALM      30.03F
SAINT SIMONS   CLEAR     81  77  88 S3        30.03R

$$

SCZ027-028-034-036>038-045-046-048>050-GAZ119-141-180400-
...LAKE AND SUPPLEMENTAL COASTAL OBSERVATIONS...

STATION/POSITION TIME  TEMP    WIND        PRES    WAVE   SWELL
                       AIR SEA DIR/SP/G            HT/PER HT/PER/DIR
                 (UTC) (F)     (DEG/KT/KT) (MB)    (FT/S) (FT/S/D)
WINYAH BAY       0245   81        CALM     1015.0S
LAKE MURRAY      0320   86     260/  7/ 10 1013.9S
ACE BASIN NERRS  0245   83        CALM     1016.0S
FORT PULASKI     0300   83 86  220/  5/  8 1016.5
SAPELO ISLAND    0300   81        CALM     1017.0

$$

ANZ835-935-AMZ111-154-330-350-352-354-370-450-454-472-180400-
...C-MAN AND BUOY OBSERVATIONS...

STATION/POSITION TIME  TEMP    WIND        PRES    WAVE   SWELL
                       AIR SEA DIR/SP/G            HT/PER HT/PER/DIR
                 (UTC) (F)     (DEG/KT/KT) (MB)    (FT/S) (FT/S/D)
BUOY 41004       0310   85 85  210/ 10/ 12 1015.7
BUOY 41008       0250   86 85  200/ 14/ 16 1016.5R   2/ 3
FOLLY BEACH CMAN 0300   86     210/ 15/ 18 1016.3S
CAPERS NEARSHORE 0308   83 86  230/ 14/ 17 1015.4R
FRIPP NEARSHORE  0308   86     220/ 14/ 17 1015.6R


STATION/POSITION TIME  TEMP    WIND        PRES    WAVE   SWELL
                       AIR SEA DIR/SP/G            HT/PER HT/PER/DIR
                 (UTC) (F)     (DEG/KT/KT) (MB)    (FT/S) (FT/S/D)
5E ST. MARYS GA  0300      85                N/A     1/ 9
FRYING PAN BUOY  0310   84 85  180/  8/ 10 1015.6
BUOY 41025       0250   84 86  180/ 10/ 12 1016.3R   2/ 7   2/ 50/ 7
CAPE LOOKOUT NC  0300   83     160/  9/ 10 1015.7R
BUOY 41002       0250   78 84  250/ 16/ 21 1017.8R   2/ 5   2/ 80/ 9
BUOY 41010       0310   85 86  160/ 10/ 12 1018.4
ST AUGUSTINE FL  0300   78 82  190/  6/  7 1018.1R


$$




USA.gov is the U.S. government's official web portal to all federal, state and local government web resources and services.